Time,TemperatureF,DewpointF,PressureIn,WindDirection,WindDirectionDegrees,WindSpeedMPH,WindSpeedGustMPH,Humidity,HourlyPrecipIn,Conditions,Clouds,dailyrainin,SolarRadiationWatts/m^2,SoftwareType,DateUTC
2013-03-11 00:03:00,37.0,30.0,-100.00,East,95,2.0,5.0,75,0.00,,,0.96,0.000000,,2013-03-11 05:03:00,
2013-03-11 00:32:00,39.0,32.0,-100.00,North,5,3.0,5.0,75,0.00,,,0.23,0.000000,,2013-03-11 05:32:00,
2013-03-11 00:43:00,39.0,32.0,-100.00,North,5,3.0,5.0,75,0.00,,,0.23,0.000000,,2013-03-11 05:43:00,
2013-03-11 00:52:00,39.0,32.0,-100.00,North,5,3.0,5.0,75,0.00,,,0.23,0.000000,,2013-03-11 05:52:00,
2013-03-11 01:02:00,39.0,32.0,-100.00,North,5,3.0,5.0,75,0.00,,,0.23,0.000000,,2013-03-11 06:02:00,
2013-03-11 01:33:00,38.0,30.0,-100.00,SE,133,1.0,7.0,72,0.00,,,0.07,0.000000,,2013-03-11 06:33:00,
2013-03-11 01:42:00,38.0,30.0,-100.00,SE,133,1.0,7.0,72,0.00,,,0.07,0.000000,,2013-03-11 06:42:00,
2013-03-11 01:53:00,38.0,30.0,-100.00,SE,133,1.0,7.0,72,0.00,,,0.07,0.000000,,2013-03-11 06:53:00,
2013-03-11 02:02:00,38.0,30.0,-100.00,SE,133,1.0,7.0,72,0.00,,,0.07,0.000000,,2013-03-11 07:02:00,
2013-03-11 02:33:00,35.0,29.0,-100.00,SE,142,2.0,4.0,80,0.00,,,0.02,0.000000,,2013-03-11 07:33:00,
2013-03-11 02:42:00,35.0,29.0,-100.00,SE,142,2.0,4.0,80,0.00,,,0.02,0.000000,,2013-03-11 07:42:00,
2013-03-11 02:52:00,35.0,29.0,-100.00,SE,142,2.0,4.0,80,0.00,,,0.02,0.000000,,2013-03-11 07:52:00,
2013-03-11 03:02:00,35.0,29.0,-100.00,SE,142,2.0,4.0,80,0.00,,,0.02,0.000000,,2013-03-11 08:02:00,
2013-03-11 03:33:00,33.0,28.0,-100.00,SSE,151,2.0,5.0,81,0.00,,,0.02,0.000000,,2013-03-11 08:33:00,
2013-03-11 03:42:00,33.0,28.0,-100.00,SSE,151,2.0,5.0,81,0.00,,,0.02,0.000000,,2013-03-11 08:42:00,
2013-03-11 03:52:00,33.0,28.0,-100.00,SSE,151,2.0,5.0,81,0.00,,,0.02,0.000000,,2013-03-11 08:52:00,
2013-03-11 04:02:00,33.0,28.0,-100.00,SSE,151,2.0,5.0,81,0.00,,,0.02,0.000000,,2013-03-11 09:02:00,
2013-03-11 04:32:00,33.0,29.0,-100.00,SSE,152,2.0,4.0,86,0.00,,,0.01,0.000000,,2013-03-11 09:32:00,
2013-03-11 04:42:00,33.0,29.0,-100.00,SSE,152,2.0,4.0,86,0.00,,,0.01,0.000000,,2013-03-11 09:42:00,
2013-03-11 04:52:00,33.0,29.0,-100.00,SSE,152,2.0,4.0,86,0.00,,,0.01,0.000000,,2013-03-11 09:52:00,
2013-03-11 05:02:00,33.0,29.0,-100.00,SSE,152,2.0,4.0,86,0.00,,,0.01,0.000000,,2013-03-11 10:02:00,
2013-03-11 05:33:00,33.0,30.0,-100.00,South,185,3.0,4.0,87,0.00,,,0.01,0.000000,,2013-03-11 10:33:00,
2013-03-11 05:42:00,33.0,30.0,-100.00,South,185,3.0,4.0,87,0.00,,,0.01,0.000000,,2013-03-11 10:42:00,
2013-03-11 05:52:00,33.0,30.0,-100.00,South,185,3.0,4.0,87,0.00,,,0.01,0.000000,,2013-03-11 10:52:00,
2013-03-11 06:02:00,33.0,30.0,-100.00,South,185,3.0,4.0,87,0.00,,,0.01,0.000000,,2013-03-11 11:02:00,
2013-03-11 06:33:00,31.0,27.0,-100.00,SSW,205,2.0,4.0,86,0.00,,,-99.99,0.000000,,2013-03-11 11:33:00,
2013-03-11 06:43:00,31.0,27.0,-100.00,SSW,205,2.0,4.0,86,0.00,,,-99.99,0.000000,,2013-03-11 11:43:00,
2013-03-11 06:53:00,31.0,27.0,-100.00,SSW,205,2.0,4.0,86,0.00,,,-99.99,0.000000,,2013-03-11 11:53:00,
2013-03-11 07:02:00,31.0,27.0,-100.00,SSW,205,2.0,4.0,86,0.00,,,-99.99,0.000000,,2013-03-11 12:02:00,
2013-03-11 07:33:00,32.0,29.0,-100.00,SSW,211,3.0,5.0,88,0.00,,,-99.99,0.000000,,2013-03-11 12:33:00,
2013-03-11 07:43:00,32.0,29.0,-100.00,SSW,211,3.0,5.0,88,0.00,,,-99.99,0.000000,,2013-03-11 12:43:00,
2013-03-11 07:53:00,32.0,29.0,-100.00,SSW,211,3.0,5.0,88,0.00,,,-99.99,0.000000,,2013-03-11 12:53:00,
2013-03-11 08:02:00,32.0,29.0,-100.00,SSW,211,3.0,5.0,88,0.00,,,-99.99,0.000000,,2013-03-11 13:02:00,
2013-03-11 08:33:00,36.0,29.0,-100.00,WNW,289,6.0,13.0,75,0.00,,,-99.99,6.000000,,2013-03-11 13:33:00,
2013-03-11 08:43:00,36.0,29.0,-100.00,WNW,289,6.0,13.0,75,0.00,,,-99.99,6.000000,,2013-03-11 13:43:00,
2013-03-11 08:53:00,36.0,29.0,-100.00,WNW,289,6.0,13.0,75,0.00,,,-99.99,6.000000,,2013-03-11 13:53:00,
2013-03-11 09:02:00,36.0,29.0,-100.00,WNW,289,6.0,13.0,75,0.00,,,-99.99,6.000000,,2013-03-11 14:02:00,
2013-03-11 09:33:00,38.0,25.0,-100.00,NW,313,7.0,12.0,60,0.00,,,0.00,65.000000,,2013-03-11 14:33:00,
2013-03-11 09:43:00,38.0,25.0,-100.00,NW,313,7.0,12.0,60,0.00,,,0.00,65.000000,,2013-03-11 14:43:00,
2013-03-11 09:53:00,38.0,25.0,-100.00,NW,313,7.0,12.0,60,0.00,,,0.00,65.000000,,2013-03-11 14:53:00,
2013-03-11 10:02:00,38.0,25.0,-100.00,NW,313,7.0,12.0,60,0.00,,,0.00,65.000000,,2013-03-11 15:02:00,
2013-03-11 10:32:00,41.0,24.0,-100.00,NNW,329,9.0,16.0,50,0.00,,,0.00,295.000000,,2013-03-11 15:32:00,
2013-03-11 10:43:00,41.0,24.0,-100.00,NNW,329,9.0,16.0,50,0.00,,,0.00,295.000000,,2013-03-11 15:43:00,
2013-03-11 10:53:00,41.0,24.0,-100.00,NNW,329,9.0,16.0,50,0.00,,,0.00,295.000000,,2013-03-11 15:53:00,
2013-03-11 11:02:00,41.0,24.0,-100.00,NNW,329,9.0,16.0,50,0.00,,,0.00,295.000000,,2013-03-11 16:02:00,
2013-03-11 11:32:00,45.0,23.0,-100.00,NW,323,7.0,14.0,42,0.00,,,0.00,651.000000,,2013-03-11 16:32:00,
2013-03-11 11:43:00,45.0,23.0,-100.00,NW,323,7.0,14.0,42,0.00,,,0.00,651.000000,,2013-03-11 16:43:00,
2013-03-11 11:52:00,45.0,23.0,-100.00,NW,323,7.0,14.0,42,0.00,,,0.00,651.000000,,2013-03-11 16:52:00,
2013-03-11 12:02:00,45.0,23.0,-100.00,NW,323,7.0,14.0,42,0.00,,,0.00,651.000000,,2013-03-11 17:02:00,
2013-03-11 12:38:00,48.0,20.0,-100.00,NNW,328,7.0,15.0,32,0.00,,,-99.99,824.000000,,2013-03-11 17:38:00,
2013-03-11 12:53:00,48.0,20.0,-100.00,NNW,328,7.0,15.0,32,0.00,,,-99.99,824.000000,,2013-03-11 17:53:00,
2013-03-11 13:02:00,48.0,20.0,-100.00,NNW,328,7.0,15.0,32,0.00,,,-99.99,824.000000,,2013-03-11 18:02:00,
2013-03-11 13:33:00,51.0,17.0,-100.00,NNW,327,9.0,15.0,26,0.00,,,-99.99,947.000000,,2013-03-11 18:33:00,
2013-03-11 13:43:00,51.0,17.0,-100.00,NNW,327,9.0,15.0,26,0.00,,,-99.99,947.000000,,2013-03-11 18:43:00,
2013-03-11 13:53:00,51.0,17.0,-100.00,NNW,327,9.0,15.0,26,0.00,,,-99.99,947.000000,,2013-03-11 18:53:00,
2013-03-11 14:02:00,51.0,17.0,-100.00,NNW,327,9.0,15.0,26,0.00,,,-99.99,947.000000,,2013-03-11 19:02:00,
2013-03-11 14:33:00,54.0,19.0,-100.00,NNW,333,8.0,15.0,25,0.00,,,0.00,987.000000,,2013-03-11 19:33:00,
2013-03-11 14:43:00,54.0,19.0,-100.00,NNW,333,8.0,15.0,25,0.00,,,0.00,987.000000,,2013-03-11 19:43:00,
2013-03-11 14:53:00,54.0,19.0,-100.00,NNW,333,8.0,15.0,25,0.00,,,0.00,987.000000,,2013-03-11 19:53:00,
2013-03-11 15:02:00,54.0,19.0,-100.00,NNW,333,8.0,15.0,25,0.00,,,0.00,987.000000,,2013-03-11 20:02:00,
2013-03-11 15:33:00,58.0,19.0,-100.00,NW,326,9.0,15.0,22,0.00,,,0.00,950.000000,,2013-03-11 20:33:00,
2013-03-11 15:44:00,58.0,19.0,-100.00,NW,326,9.0,15.0,22,0.00,,,0.00,950.000000,,2013-03-11 20:44:00,
2013-03-11 15:53:00,58.0,19.0,-100.00,NW,326,9.0,15.0,22,0.00,,,0.00,950.000000,,2013-03-11 20:53:00,
2013-03-11 16:03:00,58.0,19.0,-100.00,NW,326,9.0,15.0,22,0.00,,,0.00,950.000000,,2013-03-11 21:03:00,
2013-03-11 16:33:00,60.0,19.0,-100.00,NW,320,5.0,15.0,20,0.00,,,0.00,845.000000,,2013-03-11 21:33:00,
2013-03-11 16:44:00,60.0,19.0,-100.00,NW,320,5.0,15.0,20,0.00,,,0.00,845.000000,,2013-03-11 21:44:00,
2013-03-11 16:53:00,60.0,19.0,-100.00,NW,320,5.0,15.0,20,0.00,,,0.00,845.000000,,2013-03-11 21:53:00,
2013-03-11 17:02:00,60.0,19.0,-100.00,NW,320,5.0,15.0,20,0.00,,,0.00,845.000000,,2013-03-11 22:02:00,
2013-03-11 17:33:00,61.0,21.0,-100.00,NNW,344,6.0,10.0,21,0.00,,,0.00,678.000000,,2013-03-11 22:33:00,
2013-03-11 17:43:00,61.0,21.0,-100.00,NNW,344,6.0,10.0,21,0.00,,,0.00,678.000000,,2013-03-11 22:43:00,
2013-03-11 17:53:00,61.0,21.0,-100.00,NNW,344,6.0,10.0,21,0.00,,,0.00,678.000000,,2013-03-11 22:53:00,
2013-03-11 18:03:00,61.0,21.0,-100.00,NNW,344,6.0,10.0,21,0.00,,,0.00,678.000000,,2013-03-11 23:03:00,
2013-03-11 18:33:00,62.0,24.0,-100.00,NW,321,5.0,11.0,23,0.00,,,0.00,461.000000,,2013-03-11 23:33:00,
2013-03-11 18:43:00,62.0,24.0,-100.00,NW,321,5.0,11.0,23,0.00,,,0.00,461.000000,,2013-03-11 23:43:00,
2013-03-11 18:53:00,62.0,24.0,-100.00,NW,321,5.0,11.0,23,0.00,,,0.00,461.000000,,2013-03-11 23:53:00,
2013-03-11 19:02:00,62.0,24.0,-100.00,NW,321,5.0,11.0,23,0.00,,,0.00,461.000000,,2013-03-12 00:02:00,
2013-03-11 19:33:00,59.0,22.0,-100.00,NW,322,4.0,10.0,24,0.00,,,0.00,218.000000,,2013-03-12 00:33:00,
2013-03-11 19:43:00,59.0,22.0,-100.00,NW,322,4.0,10.0,24,0.00,,,0.00,218.000000,,2013-03-12 00:43:00,
2013-03-11 19:53:00,59.0,22.0,-100.00,NW,322,4.0,10.0,24,0.00,,,0.00,218.000000,,2013-03-12 00:53:00,
2013-03-11 20:02:00,59.0,22.0,-100.00,NW,322,4.0,10.0,24,0.00,,,0.00,218.000000,,2013-03-12 01:02:00,
2013-03-11 20:33:00,50.0,26.0,-100.00,SE,140,3.0,5.0,39,0.00,,,0.00,11.000000,,2013-03-12 01:33:00,
2013-03-11 20:42:00,50.0,26.0,-100.00,SE,140,3.0,5.0,39,0.00,,,0.00,11.000000,,2013-03-12 01:42:00,
2013-03-11 20:52:00,50.0,26.0,-100.00,SE,140,3.0,5.0,39,0.00,,,0.00,11.000000,,2013-03-12 01:52:00,
2013-03-11 21:02:00,50.0,26.0,-100.00,SE,140,3.0,5.0,39,0.00,,,0.00,11.000000,,2013-03-12 02:02:00,
2013-03-11 21:32:00,49.0,26.0,-100.00,SE,145,4.0,6.0,41,0.00,,,0.00,0.000000,,2013-03-12 02:32:00,
2013-03-11 21:43:00,49.0,26.0,-100.00,SE,145,4.0,6.0,41,0.00,,,0.00,0.000000,,2013-03-12 02:43:00,
2013-03-11 21:52:00,49.0,26.0,-100.00,SE,145,4.0,6.0,41,0.00,,,0.00,0.000000,,2013-03-12 02:52:00,
2013-03-11 22:02:00,49.0,26.0,-100.00,SE,145,4.0,6.0,41,0.00,,,0.00,0.000000,,2013-03-12 03:02:00,
2013-03-11 22:32:00,48.0,24.0,-100.00,SE,133,4.0,6.0,38,0.00,,,0.00,0.000000,,2013-03-12 03:32:00,
2013-03-11 22:42:00,48.0,24.0,-100.00,SE,133,4.0,6.0,38,0.00,,,0.00,0.000000,,2013-03-12 03:42:00,
2013-03-11 22:53:00,48.0,24.0,-100.00,SE,133,4.0,6.0,38,0.00,,,0.00,0.000000,,2013-03-12 03:53:00,
2013-03-11 23:02:00,48.0,24.0,-100.00,SE,133,4.0,6.0,38,0.00,,,0.00,0.000000,,2013-03-12 04:02:00,
2013-03-11 23:32:00,48.0,23.0,-100.00,SE,130,5.0,7.0,37,0.00,,,0.00,0.000000,,2013-03-12 04:32:00,
2013-03-11 23:43:00,48.0,23.0,-100.00,SE,130,5.0,7.0,37,0.00,,,0.00,0.000000,,2013-03-12 04:43:00,
2013-03-11 23:52:00,48.0,23.0,-100.00,SE,130,5.0,7.0,37,0.00,,,0.00,0.000000,,2013-03-12 04:52:00,